Flag for Germany Weather past 2 weeks in Lüneburg, Lower Saxony, Germany

Now
72 °F

Scattered clouds.


Feels Like: 77 °F
Forecast: 57 / 84 °F
Wind: 3 mph from South

Location: Fassberg

Current Time: Aug 29, 2015 at 7:01:54 PM

Latest Report: Aug 29, 2015 at 6:20 PM


Visibility: N/A

Pressure: 30.18 "Hg

Humidity: 50%

Dew point: 52 °F

Location of LüneburgLocation

Historic Weather in Lüneburg — Graph

°F

Lüneburg temperature yesterday

Maximum temperature yesterday: 66 °F (at 4:20 PM)
Minimum temperature yesterday: 54 °F (at 10:20 PM)
Average temperature yesterday: 59 °F

Past Weeks' High & Low Weather Summary

 TemperatureHumidityPressure
High84 °F (Aug 14, 5:20 PM)100% (Aug 14, 11:20 PM)30.30 "Hg (Aug 14, 11:20 PM)
Low45 °F (Aug 29, 5:20 AM)34% (Aug 22, 5:20 PM)29.62 "Hg (Aug 24, 6:20 PM)
Average64 °F82%29.96 "Hg
* Reported Aug 14 5:20 PM — Aug 29 5:20 PM, Lüneburg, Weather by CustomWeather, © 2015

Note: Actual official high and low records may vary slightly from our data, if they occured in-between our weather recording intervals... More about our weather records

Advertising

Lüneburg weather history for previous 24 hours

 ConditionsComfort  
Time TempWeatherWind HumidityBarometerVisibility
5:20 PM
Sat, Aug 29
72 °FScattered clouds.6 mph50%30.18 "HgN/A
4:20 PM72 °FScattered clouds.5 mph47%30.21 "HgN/A
3:20 PM72 °FScattered clouds.5 mph50%30.21 "HgN/A
2:20 PM72 °FScattered clouds.7 mph50%30.21 "HgN/A
1:20 PM72 °FScattered clouds.7 mph50%30.24 "HgN/A
11:20 AM68 °FPassing clouds.5 mph60%30.24 "HgN/A
10:20 AM64 °FPassing clouds.5 mph73%30.24 "HgN/A
9:20 AM61 °FPassing clouds.3 mph77%30.24 "Hg5 mi
7:20 AM46 °FFog.2 mph93%30.24 "Hg4 mi
6:20 AM46 °FFog.No wind93%30.21 "Hg4 mi
5:20 AM45 °FFog.No wind100%30.21 "Hg5 mi
4:20 AM46 °FFog.2 mph100%30.18 "HgN/A
3:20 AM48 °FFog.No wind94%30.18 "HgN/A
2:20 AM50 °FFog.No wind94%30.18 "HgN/A
1:20 AM50 °FFog.2 mph100%30.18 "HgN/A
12:20 AM55 °FPassing clouds.1 mph94%30.15 "HgN/A
11:20 PM
Fri, Aug 28
55 °FPartly cloudy.2 mph94%30.15 "HgN/A
10:20 PM54 °FFog.2 mph100%30.12 "HgN/A
9:20 PM57 °FFog.2 mph94%30.12 "HgN/A
8:20 PM61 °FScattered clouds.1 mph83%30.09 "HgN/A
7:20 PM64 °FPassing clouds.6 mph73%30.09 "HgN/A
Weather by CustomWeather, © 2015

See weather overviewHow to use our weather pages